Regional Weather Roundup
Issued by NWS

Home | Current Version | Previous Version | Graphics & Text | Print | Product List | Glossary On
Versions: 1 2 3 4 5 6 7 8 9 10 11 12 13 14 15 16 17 18 19 20 21 22 23 24 25 26 27 28 29 30 31 32 33 34 35 36 37 38 39 40 41 42 43 44 45 46 47 48 49 50
000
ASUS43 KFSD 300302
RWRSD

WEATHER ROUNDUP FOR SOUTH DAKOTA
NATIONAL WEATHER SERVICE SIOUX FALLS SD
1000 PM CDT FRI AUG 29 2014

NOTE: "FAIR" INDICATES FEW OR NO CLOUDS BELOW 12,000 FEET WITH NO
SIGNIFICANT WEATHER AND/OR OBSTRUCTIONS TO VISIBILITY.


SDZ001>005-009-010-012>017-300400-
NORTHWEST AND NORTH CENTRAL SOUTH DAKOTA

CITY           SKY/WX    TMP DP  RH WIND       PRES   REMARKS
BUFFALO          N/A     61  52  72 NE7       29.94R
FAITH            N/A     61  53  75 NE5       29.99R
MOBRIDGE       CLEAR     58  56  93 NW3       29.93R
$$

SDZ012>016-024>037-041>051-057-063-072>074-300400-
SOUTHWEST AND SOUTH CENTRAL SOUTH DAKOTA

CITY           SKY/WX    TMP DP  RH WIND       PRES   REMARKS
RAPID CTY ARPT PTCLDY    61  53  75 NE9       30.02R
PIERRE         CLEAR     64  59  83 N8        29.92R
CUSTER         CLEAR     56  50  80 E6        30.12R
ELLSWORTH AFB  CLEAR     66  54  63 E6        30.02R
PHILIP         CLEAR     64  56  75 NE9       29.97R
PINE RIDGE     CLEAR     60  55  83 E7        30.02R
WINNER         FAIR      64  57  78 NW5       29.95R
$$

SDZ004>011-016>023-039-040-300400-
NORTHEAST SOUTH DAKOTA

CITY           SKY/WX    TMP DP  RH WIND       PRES   REMARKS
ABERDEEN       CLOUDY    62  58  86 N20G25    29.89R
WATERTOWN      CLOUDY    68  64  87 NW12      29.84R
SISSETON         N/A     66  64  93 N18G28    29.82R
$$

SDZ017-020-022-023-036>040-048>070-300400-
SOUTHEAST SOUTH DAKOTA

CITY           SKY/WX    TMP DP  RH WIND       PRES   REMARKS
SIOUX FALLS    CLOUDY    67  65  93 CALM      29.81F
HURON          CLOUDY    69  62  78 N17G23    29.86R
CHAMBERLAIN    PTCLDY    68  60  74 N9        29.92R
MITCHELL       CLOUDY    69  64  84 NW10      29.86R
YANKTON        MOCLDY    66  63  88 MISG      29.83R
$$

ABBREVIATIONS USED IN REMARKS
   TC - TEMPERATURE IN CELSIUS
  WCI - WIND CHILL INDEX
   HX - HEAT INDEX
  VSB - VISIBILITY



USA.gov is the U.S. government's official web portal to all federal, state and local government web resources and services.